Location: Byszew
(52.1813°N, 19.2693°E)
Time: 03:57:04
(UTC+00:00)

GP-B - Visible Passes

Search period start: 14 June 2021 00:00
Search period end: 24 June 2021 00:00
Orbit: 631 x 635 km, 89.8° (Epoch: 13 June)

Date Brightness Start Highest point End Pass type
(mag) Time Alt. Az. Time Alt. Az. Time Alt. Az.
14 Jun 4.4 00:02:47 10° NNW 00:06:39 30° WNW 00:09:41 14° SW visible
14 Jun 3.4 22:46:41 10° N 22:51:07 62° E 22:53:50 22° SSE visible
15 Jun 5.0 00:24:55 10° NNW 00:27:59 18° WNW 00:31:02 10° WSW visible
15 Jun 5.3 21:32:14 10° NE 21:34:49 15° ENE 21:37:22 10° ESE visible
15 Jun 3.1 23:08:15 10° N 23:12:42 77° W 23:15:26 23° S visible
16 Jun 5.5 00:47:49 10° NW 00:49:12 11° WNW 00:50:36 10° W visible
16 Jun 4.7 21:53:02 10° NNE 21:56:41 24° E 21:59:36 13° SE visible
16 Jun 3.8 23:29:57 10° N 23:34:12 45° W 23:37:02 19° SW visible
17 Jun 4.0 22:14:15 10° NNE 22:18:27 40° E 22:21:12 19° SE visible
17 Jun 4.5 23:51:52 10° NNW 23:55:36 27° WNW 23:58:38 14° SW visible
18 Jun 3.2 22:35:40 10° N 22:40:07 69° E 22:42:48 23° S visible
19 Jun 5.2 00:14:05 10° NNW 00:16:55 17° WNW 00:19:44 10° WSW visible
19 Jun 5.2 21:21:01 10° NE 21:23:52 16° ENE 21:26:43 10° ESE visible
19 Jun 3.2 22:57:15 10° N 23:01:42 69° W 23:04:25 23° SSW visible
20 Jun 5.6 00:37:37 10° WNW 00:38:08 10° WNW 00:38:39 10° WNW visible
20 Jun 4.6 21:41:56 10° NNE 21:45:44 27° E 21:48:35 15° SE visible
20 Jun 4.0 23:19:00 10° NNW 23:23:10 40° W 23:26:01 18° SW visible
21 Jun 3.8 22:03:11 10° NNE 22:07:29 44° E 22:10:11 20° SSE visible
21 Jun 4.7 23:40:57 10° NNW 23:44:33 25° WNW 23:47:38 12° SW visible
22 Jun 5.5 20:49:45 10° NE 20:50:59 11° ENE 20:52:12 10° E visible
22 Jun 3.1 22:24:38 10° N 22:29:07 77° E 22:31:48 24° S visible
23 Jun 5.3 00:03:16 10° NW 00:05:51 15° WNW 00:08:25 10° WSW visible
23 Jun 5.0 21:09:50 10° NNE 21:12:55 18° ENE 21:15:58 10° ESE visible
23 Jun 3.4 22:46:15 10° N 22:50:40 62° W 22:53:25 22° SSW visible
